Flag for Spain Weather past 2 weeks in Almería, Spain

Now
64 °F

Mild.


Feels Like: 64 °F
Forecast: 67 / 76 °F
Wind: 7 mph from Southwest

Location: Almeria / Aeropuerto


UV Index: 7 (High)

Visibility: N/A


Pressure: 29.87 "Hg

Humidity: 87%

Dew point: 60 °F

Location of AlmeríaLocation

Historic Weather in Almería

°F

Almería temperature yesterday

Maximum temperature yesterday: 81 °F (at 1:00 PM)
Minimum temperature yesterday: 57 °F (at 8:00 AM)
Average temperature yesterday: 67 °F

Past Weeks' High & Low Weather Summary

 TemperatureHumidityPressure
High83 °F (Apr 9, 3:00 PM)93% (Apr 12, 8:00 AM)30.17 "Hg (Apr 12, 8:00 AM)
Low55 °F (Apr 4, 5:00 AM)23% (Apr 9, 3:00 PM)29.78 "Hg (Apr 3, 9:00 PM)
Average66 °F64%30.04 "Hg
* Reported Apr 3 9:00 PM — Apr 18 9:00 PM, Almería, Weather by CustomWeather, © 2014

Note: Actual official high and low records may vary slightly from our data, if they occured in-between our weather recording intervals... More about our weather records

Advertising

Historic Weather Conditions — Data for Previous 24 hours

 ConditionsComfort  
Time TempWeatherWind HumidityBarometerVisibility
9:00 PM
Apr 18
64 °FMild.7 mph87%29.87 "HgN/A
8:00 PM66 °FPartly sunny.9 mph81%29.87 "Hg19 mi
7:00 PM67 °FMild.7 mph78%29.87 "HgN/A
6:00 PM69 °FMild.8 mph74%29.88 "HgN/A
5:00 PM69 °FPassing clouds.13 mph73%29.90 "Hg31 mi
4:00 PM71 °FMild.12 mph64%29.92 "HgN/A
3:00 PM69 °FMild.15 mph69%29.94 "HgN/A
2:00 PM70 °FPassing clouds.10 mph67%29.96 "Hg31 mi
1:00 PM69 °FMild.8 mph65%29.98 "HgN/A
12:00 PM70 °FMild.5 mph45%29.98 "HgN/A
11:00 AM70 °FPassing clouds.3 mph32%29.99 "Hg31 mi
10:00 AM68 °FMild.1 mph51%29.98 "HgN/A
9:00 AM65 °FMild.No wind52%29.99 "HgN/A
8:00 AM61 °FPassing clouds.5 mph58%29.98 "Hg31 mi
7:00 AM60 °FCool.3 mph63%29.97 "HgN/A
6:00 AM59 °FCool.2 mph68%29.98 "HgN/A
5:00 AM60 °FCool.No wind74%29.99 "HgN/A
4:00 AM61 °FCool.No wind73%30.00 "HgN/A
3:00 AM62 °FCool.No wind68%30.01 "HgN/A
2:00 AM64 °FMild.2 mph62%30.02 "HgN/A
Weather by CustomWeather, © 2014

See weather overview